Location: Alexander
(41.3564°N, 81.5960°W)
Time: 13:32:33
(UTC+00:00)

SJ 16-02 - Pass Details

Date: 24 January 2021
Orbit: 606 x 616 km, 75.0° (Epoch: 01 March)

Event Time Altitude Azimuth Distance (km) Brightness Sun altitude
Rises 22:57:33 0° 189° (S) 2,861 5.2 -5.1°
Reaches altitude 10° 22:59:47 10° 187° (S) 1,960 4.3 -5.5°
Maximum altitude 23:04:08 66° 105° (ESE) 668 1.4 -6.2°
Drops below altitude 10° 23:08:29 10° 24° (NNE) 1,969 3.5 -7.0°
Sets 23:10:44 0° 21° (NNE) 2,877 4.4 -7.4°
